Regional Weather Roundup
Issued by NWS

Home | Current Version | Previous Version | Graphics & Text | Print | Product List | Glossary On
Versions: 1 2 3 4 5 6 7 8 9 10 11 12 13 14 15 16 17 18 19 20 21 22 23 24 25 26 27 28 29 30 31 32 33 34 35 36 37 38 39 40 41 42 43 44 45 46 47 48 49 50
000
ASUS43 KIND 122109
RWRIN

WEATHER ROUNDUP FOR INDIANA
NATIONAL WEATHER SERVICE INDIANAPOLIS IN
400 PM EST TUE DEC 12 2017

NOTE: "FAIR" INDICATES FEW OR NO CLOUDS BELOW 12,000 FEET WITH NO
SIGNIFICANT WEATHER AND/OR OBSTRUCTIONS TO VISIBILITY.

* - STATION DOES NOT REPORT WEATHER SUCH AS PRECIPITATION OR FOG.

+ - STATION NOT QUALITY CONTROLLED BY THE NATIONAL WEATHER SERVICE.
    USE DATA WITH CAUTION...ESPECIALLY DEWPOINT AND RELATIVE
    HUMIDITY OBSERVATIONS.

INZ001>003-010>013-019-020-122200-
NORTHWEST INDIANA

CITY           SKY/WX    TMP DP  RH WIND       PRES   REMARKS
GARY /AIRPORT/ MOSUNNY   25   5  42 W12G28    30.05S WCI  14
KNOX *+        CLOUDY    23  12  63 W17G23    30.01S WCI   9
LA PORTE +     SUNNY     20  11  67 NW10G18   29.99F WCI   9
MICHIGAN CITY+ CLOUDY    23  10  58 NW12      30.01F WCI  12
MONTICELLO +   MOSUNNY   24   5  43 NW15G21   30.01F WCI  12
RENSSELAER +   SUNNY     25   1  36 W14G21    30.03S WCI  13
VALPARAISO     MOSUNNY   23   8  52 W14       30.01F WCI  11

$$

LMZ046-743>745-122200-
SOUTHERN LAKE MICHIGAN

STATION/POSITION TIME  TEMP    WIND        PRES    WAVE
                       AIR SEA DIR/SP/G            HT
                 (UTC) (F)     (DEG/KT/KT) (MB)    (FT)
BURNS HARBOR     2040   22     320/ 13/ 19 1016.9F
MICHIGAN CITY    2040   22     300/ 20/ 23   N/A

$$

INZ004-005-014>016-021>024-122200-
NORTH CENTRAL INDIANA

CITY           SKY/WX    TMP DP  RH WIND       PRES   REMARKS
ELKHART        LGT SNOW  21  16  79 NW9       29.95S WCI  11
GOSHEN         FLURRIES  21  14  74 NW12      29.94S WCI   9
LOGANSPORT +   SUNNY     25   5  42 W15G22    30.01S WCI  12
PERU/GRISSOM   MOSUNNY   24   7  48 NW17G23   29.97S WCI  10
ROCHESTER +    MOSUNNY   25  12  58 NW15G22   29.99R WCI  12
SOUTH BEND     LGT SNOW  20  18  92 NW10      29.97S VSB 1   WCI   9
WARSAW +       LGT SNOW  21  16  79 NW16G23   29.96R WCI   7

$$

INZ006>009-017-018-025>027-122200-
NORTHEAST INDIANA

CITY           SKY/WX    TMP DP  RH WIND       PRES   REMARKS
AUBURN +       MOCLDY    23  14  68 NW9       29.92S WCI  13
FORT WAYNE     MOSUNNY   21  13  71 NW12      29.94R WCI   9
HUNTINGTON +   SUNNY     21  11  64 NW14G20   29.96R WCI   8
KENDALLVILLE + CLOUDY    20  12  70 NW10G23   29.91S WCI   9

$$

INZ028-029-035-036-043>045-051>053-122200-
WEST CENTRAL INDIANA

CITY           SKY/WX    TMP DP  RH WIND       PRES   REMARKS
CRAWFORDSVL +  SUNNY     24   7  48 MISG      30.01F
GREENCASTLE +  SUNNY     27   7  43 W6        30.04R WCI  20
LAFAYETTE      SUNNY     24   8  50 NW16G23   30.03S WCI  11
TERRE HAUTE    SUNNY     28   6  39 NW18G25   30.07S WCI  15

$$

INZ030>032-037>040-046>048-054>057-064-065-122200-
CENTRAL INDIANA

CITY           SKY/WX    TMP DP  RH WIND       PRES   REMARKS
COLUMBUS       SUNNY     27   3  36 NW21G30   30.01F WCI  13
FRANKFORT +    SUNNY     28  10  46 NW16      30.02S WCI  15
GREENWOOD *+   SUNNY     30   9  42 NW16G28   30.00S WCI  19
INDIANAPOLIS   MOSUNNY   26   6  42 NW18      30.01S WCI  13
-EAGLE CREEK   SUNNY     26   6  42 W22G29    30.00S WCI  12
KOKOMO +       SUNNY     25   9  50 W21       29.99R WCI  11
MARION +       CLOUDY    24   9  53 NW21G28   29.97S WCI   9
MT COMFORT *+  SUNNY     25  10  54 NW17G26   29.99R WCI  11
SHELBYVILLE    MOSUNNY   28   6  39 W17G26    29.98F WCI  16
ZIONSVILLE +   SUNNY     24   6  46 NW20G28   30.00R WCI  10

$$

INZ033-034-041-042-049-050-058-059-122200-
EAST CENTRAL INDIANA

CITY           SKY/WX    TMP DP  RH WIND       PRES   REMARKS
MUNCIE         PTSUNNY   25   8  48 NW18      29.96R WCI  11
RICHMOND +     CLOUDY    23  10  58 NW24G30   29.93S WCI   7

$$

INZ060-061-067>069-081>083-085>088-122200-
SOUTHWEST INDIANA

CITY           SKY/WX    TMP DP  RH WIND       PRES   REMARKS
EVANSVILLE     SUNNY     33   9  36 NW13G24   30.11S WCI  24
HUNTINGBURG +  SUNNY     31  10  41 NW15G21   30.08S WCI  20
WASHINGTON +   SUNNY     31   9  40 NW15G22   30.08S WCI  20

$$

INZ062-063-066-070>080-084-089>092-122200-
SOUTH CENTRAL AND SOUTHEAST INDIANA

CITY           SKY/WX    TMP DP  RH WIND       PRES   REMARKS
BEDFORD +      SUNNY     28   1  31 NW9G24    30.03S WCI  20
BLOOMINGTON    SUNNY     26   6  42 W14G22    30.03S WCI  14
MADISON *+     SUNNY     30   5  34 NW12G21   30.01R WCI  21
NORTH VERNON + MOSUNNY   27   7  43 NW12G20   30.00S WCI  16
SEYMOUR +      SUNNY     32   9  37 W15G22    30.02R WCI  22

$$




USA.gov is the U.S. government's official web portal to all federal, state and local government web resources and services.